Wind_Speed
26 26 26 26 25 25 25 25 25 25 24 24 23 22 20 20 19 20 19 19 19 19 20 20 21 22 22 23 23 23 24 25 25 25 26 26 26 27 27 27 27 27 27 28
28 28 28 28 28 28 27 28 28 28 27 27 25 25 23 22 21 22 22 22 22 22 23 23 24 24 24 24 25 25 25 25 26 26 27 27 28 28 28 28 28 28 28 28
28 28 29 30 29 29 29 29 29 29 29 28 27 26 25 25 24 23 23 24 25 25 26 26 27 27 26 27 27 27 27 27 27 28 28 28 29 29 30 30 30 30 29 28
29 29 31 29 29 29 30 30 30 30 30 29 28 28 27 26 26 26 26 26 27 27 28 28 29 29 28 28 29 29 29 28 29 29 30 31 31 31 31 31 31 31 30 30
30 30 31 31 30 30 30 31 30 30 29 29 28 28 28 28 27 27 27 28 28 28 29 29 30 30 30 30 30 30 30 30 30 31 32 32 32 32 32 32 32 32 32 32
32 31 30 31 31 30 30 31 30 30 30 29 29 29 29 29 29 29 29 29 29 30 30 30 30 31 32 32 31 32 32 32 33 33 33 33 33 33 33 33 33 33 33 34
31 32 31 33 32 31 30 30 30 30 30 30 30 31 30 30 30 30 30 30 30 31 31 31 31 32 33 33 33 34 34 34 34 34 34 34 34 33 33 33 34 34 34 34
31 31 32 34 32 31 31 31 30 30 30 30 31 31 31 31 31 31 31 31 31 32 32 33 33 34 34 34 34 34 34 34 34 34 34 34 34 34 34 34 34 34 34 34
31 31 32 32 31 31 31 31 30 30 30 30 30 30 31 31 31 32 32 32 32 33 33 34 35 35 35 34 35 34 33 33 33 33 33 33 33 33 33 33 33 33 33 33
31 32 32 32 31 31 31 31 30 30 30 30 30 30 31 31 31 32 32 32 33 33 33 34 35 35 35 35 35 35 34 33 33 33 32 32 32 32 33 33 33 33 32 32
31 31 31 31 31 31 31 31 30 29 29 29 29 29 30 31 31 31 31 32 32 33 33 33 34 34 35 35 35 35 34 33 33 32 32 32 32 31 32 32 32 32 32 32
30 30 31 31 31 31 31 31 30 29 29 28 28 29 29 30 31 31 31 32 32 33 34 33 33 33 33 33 34 33 33 33 33 32 31 31 31 31 31 31 31 32 32 32
30 30 30 30 30 31 30 29 29 29 28 28 28 29 30 30 31 31 31 32 32 32 33 33 32 33 33 33 33 33 32 32 32 32 32 32 31 31 31 31 31 32 32 32
29 29 29 29 29 29 29 29 28 28 28 29 29 29 30 31 31 31 32 32 32 32 32 32 32 32 32 32 33 33 32 32 32 32 32 32 32 31 31 32 32 32 32 32
28 28 28 28 28 28 28 28 28 28 29 29 30 30 30 31 31 31 31 31 32 32 32 32 32 32 32 31 32 32 32 32 32 32 31 31 31 31 31 31 31 31 32 32
25 26 26 27 27 27 28 28 28 28 29 29 29 29 30 30 30 30 31 32 31 31 31 31 32 31 31 31 31 31 31 31 31 31 31 30 30 29 29 30 30 31 32 32
24 25 26 27 27 26 26 26 26 27 28 29 29 29 30 30 30 31 31 32 31 31 30 30 30 30 31 31 31 31 30 30 30 30 30 30 29 29 29 29 29 29 29 30
23 23 24 25 26 26 26 27 27 27 28 28 29 30 30 30 30 31 31 31 31 31 30 30 30 30 31 31 31 30 29 29 29 29 29 29 28 27 28 28 28 28 27 27
22 22 22 23 25 25 26 26 26 27 27 28 29 29 29 29 30 30 30 30 30 31 30 30 30 30 31 30 29 29 29 29 29 29 29 29 28 28 27 27 27 26 26 26
20 20 20 21 22 23 24 25 26 26 26 27 27 28 28 29 29 29 29 30 29 29 28 29 29 29 29 29 29 28 28 29 29 28 27 27 27 27 27 28 27 27 26 26
18 19 19 19 20 21 22 23 24 24 24 25 25 25 26 27 27 27 27 27 27 27 27 27 27 27 27 27 27 27 27 27 26 26 26 26 26 26 26 26 26 25 25 25
18 19 19 20 20 20 21 21 22 22 22 23 23 23 24 24 25 25 25 25 26 25 25 25 25 25 24 24 24 24 24 24 24 24 25 25 25 24 24 25 25 24 24 25
17 17 17 18 18 19 19 20 20 20 20 21 21 22 22 22 22 22 22 23 23 23 23 23 23 22 22 22 22 22 22 21 21 21 21 21 21 22 22 22 22 22 23 23
15 15 15 15 16 17 17 17 18 18 18 19 20 20 20 20 20 20 20 21 21 21 21 21 21 20 20 20 20 21 20 20 21 21 20 19 19 20 21 21 21 22 22 23
15 15 15 15 16 16 16 16 17 17 17 18 17 18 19 19 19 19 19 19 19 19 19 19 19 19 20 20 20 19 19 18 18 18 19 19 19 19 20 20 21 22 22 22
14 14 15 15 16 16 16 16 16 16 16 16 16 16 16 17 17 18 18 19 19 19 19 19 19 19 20 20 20 19 18 18 18 18 18 19 20 20 20 20 21 21 22 22
13 13 13 14 14 14 14 15 15 15 15 15 15 16 16 16 16 17 17 17 17 18 18 18 19 19 19 20 19 19 19 19 19 20 20 21 21 20 20 20 21 21 22 22
Wind_Direction
246 249 252 253 252 252 251 252 254 258 260 262 264 266 267 266 263 262 262 263 262 263 263 264 266 269 272 274 275 276 277 278 280 281 281 282 283 283 284 285 285 284 283 283
252 252 253 252 252 253 254 256 257 258 260 262 264 264 263 263 263 263 264 265 264 264 263 265 267 269 272 274 276 277 278 278 279 281 282 282 283 283 284 285 285 285 284 283
253 253 255 255 255 256 257 258 259 259 259 261 262 264 264 264 264 264 265 265 265 265 266 266 267 270 272 273 275 276 277 278 279 280 281 283 283 283 284 284 284 284 283 282
251 253 255 257 257 257 257 259 259 259 260 261 262 262 262 263 264 264 265 266 266 266 268 268 269 271 272 273 274 275 277 278 277 278 280 282 283 283 283 283 282 281 281 280
253 256 258 258 259 258 258 258 259 259 260 260 262 263 262 262 262 264 266 266 266 267 268 269 271 272 273 274 275 276 277 277 277 278 280 281 282 282 283 282 280 279 280 279
253 254 256 258 259 259 259 259 257 258 259 260 261 262 262 262 262 264 266 266 267 268 268 269 270 271 272 274 275 275 276 277 277 278 279 280 281 281 282 281 279 279 280 281
252 255 257 257 260 260 259 259 259 260 261 260 261 262 262 262 262 263 265 266 267 267 268 269 270 271 272 274 275 275 276 277 278 279 280 280 280 281 281 280 280 280 281 281
252 256 257 258 261 259 260 260 261 261 261 262 262 262 261 261 261 263 265 266 267 268 269 270 271 271 273 274 275 276 277 278 279 279 280 280 279 279 279 279 279 280 281 281
253 255 258 260 261 260 260 261 261 261 261 262 262 261 261 260 261 263 266 267 268 269 270 271 271 271 271 272 274 276 277 278 278 278 279 279 278 279 280 280 279 279 279 280
254 256 259 260 260 261 261 261 260 261 261 261 261 261 261 261 262 264 266 267 268 270 272 273 273 273 273 273 274 276 277 277 277 277 277 277 277 279 281 281 279 278 278 279
255 258 260 260 260 260 261 260 260 259 259 260 260 260 260 260 262 264 265 267 269 270 272 274 275 275 275 275 276 276 277 278 277 276 277 278 279 280 280 281 281 280 280 280
255 257 258 259 260 260 260 258 259 259 258 259 259 259 259 260 262 264 266 268 270 271 272 274 275 275 277 278 278 278 278 278 277 277 276 278 279 279 278 279 278 278 279 279
255 255 256 258 259 260 258 257 259 258 256 258 259 259 260 261 263 265 267 269 270 272 274 275 275 275 276 278 279 279 279 279 277 276 276 278 278 278 278 278 278 278 278 278
255 255 256 257 259 259 258 259 261 259 258 258 259 260 261 263 265 267 269 270 271 273 274 275 275 276 277 278 278 278 278 278 277 277 277 277 277 277 277 276 277 279 278 278
256 256 256 257 259 259 260 262 263 261 259 260 260 261 262 264 266 267 269 271 273 274 274 275 275 276 276 278 279 279 279 278 277 276 276 276 276 276 278 277 278 280 280 278
255 256 256 257 258 258 259 261 261 260 260 261 261 261 262 264 265 266 269 271 273 274 275 276 276 276 277 278 279 279 278 277 276 276 277 277 277 277 279 279 280 281 282 280
255 256 257 258 259 258 260 261 259 259 260 262 262 262 263 265 266 267 269 270 272 274 276 276 276 276 278 279 279 280 279 278 277 277 277 276 277 278 279 282 284 283 284 285
255 256 257 258 259 259 260 262 261 262 260 262 264 264 266 266 266 267 269 271 273 274 275 275 276 276 278 280 280 279 277 276 275 276 277 276 277 279 280 281 282 283 283 285
255 257 258 259 259 259 261 263 264 265 264 264 265 265 265 266 267 267 268 270 271 272 272 274 275 277 277 278 279 280 278 277 277 276 275 275 275 277 279 281 280 281 282 283
256 256 258 259 259 258 260 262 264 265 265 265 265 265 265 265 267 268 269 269 271 273 275 276 277 277 276 276 277 277 276 276 275 275 274 274 275 276 277 278 277 278 280 282
259 261 262 264 262 262 263 264 266 267 267 267 266 266 267 268 269 270 270 270 271 273 276 278 279 279 277 277 276 276 276 274 273 273 274 274 275 275 275 275 276 277 279 280
262 263 264 265 265 265 265 265 265 266 267 267 267 269 270 269 269 271 271 272 272 273 275 277 278 279 279 277 277 277 277 276 275 277 277 276 274 274 274 276 276 277 277 278
266 266 265 266 266 266 266 266 267 268 269 269 269 269 269 269 270 271 271 272 273 273 275 276 277 278 277 277 278 278 277 276 277 277 278 277 274 274 276 277 277 277 277 278
268 269 269 269 269 268 266 266 267 269 270 271 270 269 269 269 269 270 271 272 274 275 275 276 277 277 277 277 277 277 275 275 276 276 276 276 276 276 276 277 278 279 281 282
268 269 270 271 270 269 267 267 269 269 270 270 272 271 270 270 270 271 272 273 274 275 275 276 277 277 278 279 279 278 276 276 276 277 276 277 279 279 279 280 281 283 284 284
269 270 270 270 272 271 270 268 268 269 269 270 272 274 273 272 270 270 270 271 272 272 274 276 278 279 279 280 280 278 278 278 277 277 278 279 279 279 280 282 285 286 285 285
270 270 271 272 273 272 269 268 269 270 269 269 269 272 273 274 274 275 277 278 277 276 278 279 278 279 280 280 280 278 278 279 278 278 278 278 278 279 281 284 286 287 288 288
Height
5852 5853 5854 5855 5856 5857 5859 5860 5862 5863 5863 5863 5863 5864 5864 5864 5864 5865 5865 5865 5865 5865 5865 5865 5865 5865 5864 5863 5863 5862 5861 5860 5859 5858 5857 5856 5855 5853 5852 5851 5849 5848 5847 5845
5844 5845 5846 5847 5848 5850 5851 5852 5853 5855 5856 5856 5856 5857 5857 5858 5858 5858 5859 5859 5859 5859 5859 5859 5859 5858 5857 5857 5856 5855 5854 5853 5852 5851 5849 5848 5847 5846 5844 5843 5841 5840 5839 5837
5836 5837 5837 5839 5841 5842 5843 5844 5845 5846 5848 5848 5848 5849 5850 5851 5851 5852 5852 5852 5852 5852 5852 5852 5852 5851 5850 5850 5849 5848 5847 5846 5845 5843 5842 5841 5839 5838 5836 5834 5833 5831 5830 5829
5828 5828 5829 5834 5832 5833 5834 5835 5836 5837 5838 5839 5840 5841 5842 5843 5843 5844 5844 5844 5844 5844 5844 5844 5844 5843 5843 5842 5841 5840 5839 5838 5837 5836 5834 5833 5831 5829 5827 5826 5824 5822 5821 5820
5819 5819 5821 5823 5823 5824 5825 5826 5828 5829 5830 5831 5832 5832 5833 5834 5835 5836 5836 5836 5836 5836 5836 5836 5836 5835 5834 5833 5833 5832 5831 5830 5829 5827 5826 5824 5822 5820 5818 5816 5815 5813 5812 5810
5810 5811 5813 5815 5813 5815 5817 5817 5819 5820 5821 5822 5823 5824 5825 5825 5826 5827 5828 5828 5828 5828 5828 5828 5827 5826 5825 5825 5824 5823 5822 5821 5819 5818 5817 5815 5813 5811 5809 5807 5805 5804 5802 5801
5800 5801 5804 5803 5804 5806 5809 5810 5810 5811 5812 5813 5814 5815 5816 5817 5817 5818 5819 5819 5819 5819 5819 5819 5818 5817 5816 5815 5815 5813 5812 5811 5810 5808 5807 5805 5803 5801 5800 5798 5796 5794 5792 5790
5791 5793 5796 5793 5795 5797 5798 5799 5800 5801 5803 5804 5805 5806 5806 5807 5808 5808 5809 5809 5810 5810 5809 5809 5809 5808 5807 5806 5805 5804 5802 5801 5799 5798 5796 5795 5793 5791 5790 5788 5786 5784 5782 5780
5782 5784 5784 5784 5786 5787 5788 5790 5791 5792 5794 5795 5795 5796 5797 5798 5798 5799 5799 5800 5800 5800 5800 5799 5799 5798 5797 5796 5794 5793 5792 5791 5789 5788 5786 5784 5783 5781 5780 5778 5776 5774 5772 5771
5772 5773 5774 5775 5776 5777 5779 5780 5782 5783 5784 5785 5786 5787 5787 5788 5789 5790 5790 5790 5790 5790 5790 5789 5788 5787 5786 5785 5784 5783 5781 5780 5779 5778 5776 5774 5772 5771 5769 5768 5766 5764 5763 5761
5763 5764 5765 5766 5767 5768 5769 5771 5772 5773 5774 5775 5776 5777 5778 5779 5779 5780 5780 5780 5780 5780 5780 5779 5778 5777 5776 5775 5774 5772 5770 5769 5768 5767 5766 5764 5763 5761 5760 5758 5757 5755 5753 5752
5753 5755 5756 5757 5758 5759 5760 5761 5763 5764 5765 5766 5767 5768 5769 5769 5770 5770 5771 5770 5770 5770 5769 5768 5768 5767 5766 5765 5764 5762 5761 5759 5758 5757 5756 5755 5753 5752 5750 5749 5747 5746 5744 5742
5743 5745 5746 5748 5749 5750 5751 5752 5754 5755 5756 5757 5758 5759 5760 5760 5761 5761 5761 5761 5761 5760 5759 5759 5758 5757 5756 5755 5754 5753 5751 5750 5749 5747 5746 5745 5744 5743 5741 5740 5738 5736 5735 5733
5734 5735 5737 5739 5740 5741 5742 5744 5745 5746 5747 5748 5749 5750 5750 5751 5751 5751 5751 5751 5751 5750 5750 5749 5748 5747 5746 5745 5744 5743 5742 5740 5739 5738 5737 5736 5734 5733 5732 5730 5729 5727 5726 5724
5725 5727 5729 5730 5732 5733 5734 5735 5737 5738 5739 5739 5740 5741 5741 5741 5742 5742 5742 5742 5741 5741 5740 5739 5738 5738 5737 5736 5735 5733 5732 5731 5730 5729 5728 5726 5725 5724 5723 5721 5720 5719 5717 5715
5717 5719 5721 5722 5724 5725 5726 5727 5728 5729 5730 5730 5731 5731 5732 5732 5732 5732 5733 5732 5732 5732 5731 5730 5729 5728 5727 5726 5725 5724 5723 5722 5721 5720 5719 5718 5717 5715 5714 5713 5711 5710 5708 5706
5710 5712 5713 5715 5716 5717 5718 5719 5720 5720 5721 5721 5722 5722 5722 5723 5723 5723 5723 5723 5723 5723 5722 5721 5720 5719 5719 5717 5716 5715 5714 5713 5712 5711 5710 5709 5708 5707 5706 5705 5703 5701 5699 5697
5703 5705 5706 5707 5708 5709 5710 5711 5712 5712 5712 5712 5713 5713 5714 5714 5714 5714 5714 5714 5714 5713 5712 5712 5711 5710 5709 5708 5707 5706 5705 5704 5703 5703 5702 5701 5700 5699 5698 5696 5694 5693 5691 5689
5696 5697 5698 5699 5700 5701 5702 5703 5703 5704 5704 5704 5704 5704 5704 5705 5705 5705 5705 5704 5704 5704 5703 5702 5702 5701 5700 5699 5698 5697 5696 5695 5694 5693 5693 5692 5691 5690 5689 5687 5686 5684 5683 5681
5690 5691 5692 5692 5693 5694 5695 5695 5695 5695 5695 5696 5696 5696 5696 5696 5696 5696 5696 5695 5695 5694 5694 5693 5692 5691 5690 5690 5689 5688 5687 5686 5685 5684 5683 5682 5682 5681 5680 5679 5677 5676 5675 5673
5684 5685 5685 5686 5686 5687 5687 5687 5688 5688 5688 5688 5688 5688 5688 5687 5687 5687 5687 5687 5686 5686 5685 5684 5683 5682 5681 5681 5680 5679 5678 5677 5676 5675 5674 5674 5673 5672 5671 5670 5669 5667 5666 5665
5679 5679 5679 5679 5680 5680 5680 5680 5681 5681 5680 5680 5680 5680 5680 5680 5679 5679 5679 5679 5678 5678 5677 5676 5675 5674 5673 5673 5671 5670 5669 5668 5668 5667 5666 5665 5664 5663 5662 5661 5660 5659 5658 5657
5673 5673 5673 5673 5673 5673 5674 5674 5674 5674 5674 5673 5673 5673 5673 5673 5672 5672 5672 5671 5670 5670 5669 5669 5668 5667 5666 5665 5664 5663 5662 5661 5660 5659 5658 5657 5656 5655 5654 5653 5652 5651 5650 5648
5668 5668 5668 5668 5668 5668 5668 5668 5668 5668 5668 5667 5667 5667 5667 5666 5666 5665 5665 5664 5664 5663 5662 5661 5660 5660 5659 5658 5657 5656 5655 5654 5653 5652 5651 5650 5649 5648 5647 5646 5644 5643 5642 5641
5663 5663 5663 5662 5662 5662 5662 5662 5662 5662 5662 5662 5661 5661 5660 5660 5660 5659 5659 5658 5657 5657 5656 5655 5654 5653 5652 5652 5651 5649 5648 5647 5646 5645 5644 5643 5642 5641 5640 5639 5638 5636 5635 5633
5658 5658 5658 5657 5657 5657 5657 5657 5657 5656 5656 5656 5656 5655 5655 5654 5654 5653 5653 5652 5651 5650 5649 5648 5648 5647 5646 5645 5644 5643 5642 5640 5639 5638 5638 5637 5636 5635 5634 5632 5631 5629 5628 5626
5654 5653 5653 5653 5652 5652 5652 5652 5651 5651 5651 5651 5650 5650 5649 5649 5648 5648 5647 5646 5645 5644 5643 5642 5641 5640 5639 5638 5637 5636 5635 5634 5633 5632 5631 5630 5629 5628 5626 5625 5624 5622 5621 5619